Madison, WI

6:31 AM CST on December 11, 2016 (GMT -0600)
Dane County Regional-Truax

Weather History for KMSN - August, 2013

Change the Weather History Date:

Sunday, August 11, 2013

  Actual Average Record
Temperature  
Mean Temperature 63 °F 70 °F  
Max Temperature 74 °F 80 °F 96 °F (1941)
Min Temperature 52 °F 60 °F 39 °F (1967)
Degree Days  
Heating Degree Days 2 1  
Month to date heating degree days 3 8  
Since 1 June heating degree days 73 78  
Since 1 July heating degree days 21 18  
Cooling Degree Days 0 6  
Month to date cooling degree days 39 66  
Year to date cooling degree days 460 422  
Since 1 June cooling degree days 407 392  
Growing Degree Days 12 (Base 50)    
Moisture  
Dew Point 60 °F    
Average Humidity 84    
Maximum Humidity 100    
Minimum Humidity 68    
Precipitation  
Precipitation 0.12 in 0.14 in 1.67 in (1990)
Month to date precipitation 0.30 1.50  
Year to date precipitation 35.25 22.05  
Snow  
Snow 0.00 in 0.00 in 0.00 in ()
Month to date snowfall 0.0 0.0  
Since 1 June snowfall 0.0 0.0  
Since 1 July snowfall 0.0 0.0  
Snow Depth 0.00 in    
Sea Level Pressure  
Sea Level Pressure 30.09 in    
Wind  
Wind Speed 2 mph (South)    
Max Wind Speed 10 mph    
Max Gust Speed 14 mph    
Visibility 9 miles    
Events Rain    
T = Trace of Precipitation, MM = Missing Value Source: NWS Daily Summary

Daily Weather History Graph

Daily Weather History Graph

Search for Another Location

Airport or City:

Trip Planner

Search our weather history database for the weather conditions in past years. The results will help you decide how hot, cold, wet, or windy it might be!

Date:

Astronomy

Aug. 11, 2013 Rise Set
Actual Time 5:58 AM CDT 8:05 PM CDT
Civil Twilight 5:27 AM CDT 8:36 PM CDT
Nautical Twilight 4:49 AM CDT 9:14 PM CDT
Astronomical Twilight 4:07 AM CDT 9:56 PM CDT
Moon 10:56 AM CDT 10:10 PM CDT
Length of Visible Light 15h 08m
Length of Day
14h 06m
Waxing Crescent, 22% of the Moon is Illuminated
Aug 11
Waxing Crescent
Aug 14
First Quarter
Aug 20
Full
Aug 28
Last Quarter
Sep 5
New

Hourly Weather History & Observations

Time (CDT) Temp. Dew Point Humidity Pressure Visibility Wind Dir Wind Speed Gust Speed Precip Events Conditions
12:53 AM 55.0 °F 54.0 °F 96% 30.13 in 10.0 mi Calm Calm - N/A   Clear
1:53 AM 55.0 °F 54.0 °F 96% 30.14 in 10.0 mi Calm Calm - N/A   Clear
2:53 AM 54.0 °F 53.1 °F 97% 30.13 in 10.0 mi Calm Calm - N/A   Clear
3:53 AM 53.1 °F 52.0 °F 96% 30.12 in 9.0 mi Calm Calm - N/A   Clear
4:53 AM 54.0 °F 53.1 °F 97% 30.12 in 10.0 mi Calm Calm - N/A   Partly Cloudy
5:53 AM 55.9 °F 54.0 °F 93% 30.13 in 10.0 mi Calm Calm - N/A   Overcast
6:53 AM 61.0 °F 55.9 °F 83% 30.13 in 10.0 mi Variable 3.5 mph - N/A   Overcast
7:53 AM 61.0 °F 59.0 °F 93% 30.13 in 5.0 mi Calm Calm - 0.01 in Rain Light Rain
8:53 AM 62.1 °F 60.1 °F 93% 30.14 in 5.0 mi Calm Calm - 0.02 in Rain Light Rain
9:33 AM 62.6 °F 60.8 °F 94% 30.14 in 1.8 mi Calm Calm - 0.05 in Rain Rain
9:41 AM 62.6 °F 60.8 °F 94% 30.13 in 2.0 mi Calm Calm - 0.07 in Rain Light Rain
9:48 AM 62.6 °F 60.8 °F 94% 30.13 in 5.0 mi ESE 3.5 mph - 0.07 in Rain Light Rain
9:53 AM 63.0 °F 61.0 °F 93% 30.12 in 8.0 mi ESE 3.5 mph - 0.07 in Rain Light Rain
10:53 AM 64.9 °F 62.1 °F 90% 30.12 in 10.0 mi SSE 5.8 mph - 0.00 in   Overcast
11:53 AM 66.9 °F 63.0 °F 87% 30.09 in 10.0 mi SSE 8.1 mph - 0.00 in   Overcast
12:53 PM 71.1 °F 62.1 °F 73% 30.09 in 10.0 mi SSW 5.8 mph - N/A   Scattered Clouds
1:53 PM 71.1 °F 61.0 °F 70% 30.07 in 10.0 mi WSW 4.6 mph - N/A   Overcast
2:08 PM 71.6 °F 62.6 °F 73% 30.07 in 10.0 mi SW 4.6 mph - N/A   Overcast
2:53 PM 71.1 °F 62.1 °F 73% 30.07 in 10.0 mi Calm Calm - N/A   Overcast
3:39 PM 71.6 °F 62.6 °F 73% 30.07 in 10.0 mi SSW 3.5 mph - N/A   Overcast
3:53 PM 73.0 °F 63.0 °F 71% 30.06 in 10.0 mi Variable 4.6 mph - N/A   Overcast
4:53 PM 73.9 °F 64.0 °F 71% 30.06 in 10.0 mi Calm Calm - N/A   Overcast
5:53 PM 73.0 °F 64.0 °F 73% 30.04 in 10.0 mi WNW 3.5 mph - N/A   Overcast
6:53 PM 72.0 °F 64.9 °F 78% 30.03 in 10.0 mi Calm Calm - N/A   Overcast
7:53 PM 70.0 °F 64.9 °F 84% 30.03 in 10.0 mi Calm Calm - N/A   Overcast
8:53 PM 68.0 °F 64.9 °F 90% 30.04 in 10.0 mi North 5.8 mph - N/A   Overcast
9:53 PM 68.0 °F 64.9 °F 90% 30.04 in 9.0 mi Calm Calm - 0.01 in   Overcast
10:53 PM 66.9 °F 64.9 °F 93% 30.03 in 9.0 mi ENE 4.6 mph - N/A   Overcast
11:53 PM 66.9 °F 64.9 °F 93% 30.04 in 8.0 mi SSE 3.5 mph - 0.01 in   Overcast